Home   Weather   Neu-Isenburg   Past weeks

Flag for Germany Past Weather in Neu-Isenburg, Hesse, Germany — Yesterday and Last 2 Weeks

Now
28 °F

Ice fog.


Feels Like: 25 °F
Forecast: 27 / 34 °F
Wind: 3 mph from Southwest

Location: Frankfurt-M-Flughafen Airport

Current Time: Dec 6, 2016 at 11:23:53 am

Latest Report: Dec 6, 2016 at 10:50 am


Visibility: 1 mi

Pressure: 30.51 "Hg

Humidity: 93%

Dew Point: 27 °F

Location of Neu-IsenburgLocation

Past Weather in Neu-Isenburg — Graph

°F

Neu-Isenburg Temperature Yesterday

Maximum temperature yesterday: 30 °F (at 12:50 pm)
Minimum temperature yesterday: 21 °F (at 5:50 am)
Average temperature yesterday: 26 °F

High & Low Weather Summary for the Past Weeks

 TemperatureHumidityPressure
High57 °F (Nov 24, 1:50 pm)100% (Nov 22, 12:50 am)30.57 "Hg (Nov 22, 12:50 am)
Low18 °F (Nov 30, 8:20 am)48% (Nov 28, 2:20 pm)29.62 "Hg (Nov 21, 12:20 pm)
Average38 °F80%30.21 "Hg
* Reported Nov 21 10:20 am — Dec 6 10:20 am, Neu-Isenburg, Weather by CustomWeather, © 2016

Note: Actual official high and low records may vary slightly from our data, if they occured in-between our weather recording intervals... More about our weather records

Advertising

Neu-Isenburg Weather History for the Previous 24 Hours

Scroll right to see more
 ConditionsComfort  
Time TempWeatherWind HumidityBarometerVisibility
10:20 am
Tue, Dec 6
28 °FIce fog.5 mph93%30.51 "Hg1 mi
9:50 am27 °FIce fog.3 mph100%30.48 "Hg1 mi
9:20 am27 °FIce fog.5 mph93%30.48 "Hg1 mi
8:50 am27 °FIce fog.5 mph100%30.48 "Hg1 mi
8:20 am27 °FSnow flurries. Ice fog.3 mph93%30.48 "Hg1 mi
7:50 am27 °FSnow flurries. Ice fog.3 mph100%30.45 "Hg1 mi
7:20 am27 °FSnow flurries. Ice fog.3 mph100%30.45 "Hg1 mi
6:50 am27 °FIce fog.1 mph100%30.45 "Hg1 mi
6:20 am27 °FSnow flurries. Ice fog.2 mph100%30.45 "Hg1 mi
5:50 am27 °FSnow flurries. Ice fog.2 mph100%30.45 "Hg1 mi
5:20 am27 °FSnow flurries. Ice fog.3 mph100%30.42 "Hg0 mi
4:50 am27 °FSnow flurries. Ice fog.3 mph100%30.42 "Hg0 mi
4:20 am27 °FSnow flurries. Ice fog.3 mph100%30.42 "Hg1 mi
3:50 am27 °FSnow flurries. Ice fog.3 mph100%30.42 "Hg0 mi
3:20 am27 °FSnow flurries. Ice fog.2 mph100%30.42 "Hg0 mi
2:50 am28 °FSnow flurries. Ice fog.3 mph93%30.42 "Hg0 mi
2:20 am27 °FSnow flurries. Ice fog.2 mph100%30.42 "Hg0 mi
1:50 am28 °FSnow flurries. Ice fog.2 mph93%30.42 "Hg0 mi
1:20 am27 °FSnow flurries. Ice fog.2 mph100%30.42 "Hg0 mi
12:50 am27 °FSnow flurries. Ice fog.1 mph100%30.42 "Hg1 mi
12:20 am28 °FSnow flurries. Ice fog.2 mph93%30.42 "Hg1 mi
11:50 pm
Mon, Dec 5
27 °FSnow flurries. Ice fog.3 mph100%30.42 "Hg1 mi
11:20 pm27 °FSnow flurries. Ice fog.2 mph100%30.42 "Hg1 mi
10:50 pm27 °FSnow flurries. Ice fog.2 mph100%30.42 "Hg1 mi
10:20 pm28 °FSnow flurries. Ice fog.2 mph93%30.42 "Hg1 mi
9:50 pm27 °FIce fog.1 mph100%30.42 "Hg1 mi
9:20 pm27 °FIce fog.1 mph100%30.39 "Hg1 mi
8:50 pm27 °FIce fog.3 mph100%30.39 "Hg1 mi
8:20 pm27 °FSnow flurries. Ice fog.2 mph100%30.39 "Hg2 mi
7:50 pm28 °FIce fog.3 mph93%30.39 "Hg2 mi
7:20 pm28 °FSnow flurries. Ice fog.5 mph86%30.39 "Hg2 mi
6:50 pm28 °FIce fog.2 mph86%30.39 "Hg3 mi
6:20 pm28 °FIce fog.3 mph86%30.39 "Hg3 mi
5:50 pm28 °FSnow flurries. Ice fog.3 mph86%30.39 "Hg3 mi
5:20 pm28 °FIce fog.5 mph86%30.39 "Hg3 mi
4:50 pm28 °FIce fog.3 mph86%30.39 "Hg3 mi
4:20 pm28 °FIce fog.5 mph86%30.36 "Hg3 mi
3:50 pm28 °FIce fog.6 mph86%30.36 "Hg3 mi
3:20 pm28 °FSnow flurries. Low clouds.3 mph86%30.36 "Hg4 mi
2:50 pm28 °FSnow flurries. Low clouds.3 mph86%30.36 "Hg4 mi
2:20 pm28 °FSnow flurries. Low clouds.6 mph86%30.36 "Hg5 mi
1:50 pm30 °FLow clouds.5 mph80%30.36 "Hg5 mi
1:20 pm30 °FLow clouds.3 mph80%30.36 "Hg5 mi
12:50 pm30 °FLow clouds.3 mph80%30.36 "HgN/A
12:20 pm28 °FLow clouds.3 mph86%30.36 "HgN/A
11:50 am28 °FOvercast.3 mph86%30.36 "HgN/A
11:20 am28 °FOvercast.2 mph86%30.39 "HgN/A
Weather by CustomWeather, © 2016

See weather overviewHow to use our weather pages